Date String (YYYY-MM-DD hh:mm:ss) UTC,Instrument flags,Ambient pressure (hPa),Sample flow (lpm),Bypass flow (lpm),Sample temperature (°C),Ambient temperature (°C),ASC tube jacket temperature (°C),LED temperature (°C),Box temperature (°C),Sample RH (%),Span deviation,Mass concentration (μg/m³),Mass concentration (μg/m³),Mass concentration (μg/m³)
DateTimeUTC,F1_M11,P_M11,Q1_M11,Q2_M11,T1_M11,T2_M11,T3_M11,T4_M11,T5_M11,U1_M11,ZSPAN_M11,X0_M11,X2_M11,X1_M11
2022-08-08 23:00:00,,0829.2,5.00,0.00,29.6,27.8,00.0,38.4,31.4,30.8,0000.0,0010.05,0004.75,0004.13
2022-08-08 23:01:00,,0829.2,5.00,0.00,29.6,28.1,00.0,38.4,31.5,31.2,0000.0,0010.43,0004.72,0004.11
2022-08-08 23:02:00,,0829.2,4.99,0.00,29.7,28.3,00.0,38.4,31.6,29.6,0000.0,0010.31,0004.68,0004.10
2022-08-08 23:03:00,,0829.2,4.99,0.00,29.7,28.3,00.0,38.4,31.6,29.4,0000.0,0009.69,0004.63,0004.09
2022-08-08 23:04:00,,0829.2,5.00,0.00,29.7,27.9,00.0,38.4,31.5,30.6,0000.0,0008.46,0004.56,0004.08
2022-08-08 23:05:00,,0829.2,5.00,0.00,29.7,27.4,00.0,38.4,31.4,30.8,0000.0,0008.24,0004.55,0004.09
2022-08-08 23:06:00,,0829.2,5.01,0.00,29.6,27.3,00.0,38.3,31.3,30.5,0000.0,0008.67,0004.55,0004.09
2022-08-08 23:07:00,,0829.1,5.00,0.00,29.6,27.4,00.0,38.3,31.3,30.8,0000.0,0008.67,0004.53,0004.09
2022-08-08 23:08:00,,0829.1,4.99,0.00,29.5,27.6,00.0,38.3,31.3,30.2,0000.0,0008.83,0004.51,0004.08
2022-08-08 23:09:00,,0829.2,5.01,0.00,29.6,27.8,00.0,38.3,31.4,31.3,0000.0,0008.93,0004.47,0004.08
2022-08-08 23:10:00,,0829.2,5.00,0.00,29.6,28.0,00.0,38.3,31.5,31.3,0000.0,0008.84,0004.45,0004.07
2022-08-08 23:11:00,,0829.1,5.00,0.00,29.6,28.2,00.0,38.4,31.6,30.7,0000.0,0008.79,0004.46,0004.08
2022-08-08 23:12:00,,0829.1,4.99,0.00,29.7,28.4,00.0,38.4,31.7,31.1,0000.0,0008.31,0004.47,0004.09
2022-08-08 23:13:00,,0829.1,5.00,0.00,29.7,28.3,00.0,38.4,31.6,31.4,0000.0,0008.38,0004.51,0004.11
2022-08-08 23:14:00,,0829.1,5.01,0.00,29.7,27.7,00.0,38.3,31.4,31.3,0000.0,0008.45,0004.55,0004.12
2022-08-08 23:15:00,,0829.1,4.99,0.00,29.6,27.3,00.0,38.3,31.4,30.8,0000.0,0008.86,0004.58,0004.12
2022-08-08 23:16:00,,0829.1,5.00,0.00,29.6,27.3,00.0,38.3,31.3,30.9,0000.0,0009.06,0004.59,0004.12
2022-08-08 23:17:00,,0829.1,4.99,0.00,29.5,27.4,00.0,38.3,31.3,31.2,0000.0,0008.57,0004.59,0004.12
2022-08-08 23:18:00,,0829.1,5.00,0.00,29.5,27.6,00.0,38.3,31.4,31.5,0000.0,0008.97,0004.63,0004.13
2022-08-08 23:19:00,,0829.0,5.01,0.00,29.5,27.9,00.0,38.3,31.4,31.5,0000.0,0008.97,0004.66,0004.15
2022-08-08 23:20:00,,0829.0,5.00,0.00,29.6,28.1,00.0,38.3,31.5,31.8,0000.0,0008.80,0004.70,0004.18
2022-08-08 23:21:00,,0829.0,5.00,0.00,29.6,28.3,00.0,38.3,31.6,31.4,0000.0,0008.89,0004.76,0004.22
2022-08-08 23:22:00,,0829.1,5.00,0.00,29.7,28.4,00.0,38.4,31.7,30.7,0000.0,0009.05,0004.83,0004.25
2022-08-08 23:23:00,,0829.1,5.00,0.00,29.7,28.1,00.0,38.4,31.5,31.4,0000.0,0009.24,0004.90,0004.29
2022-08-08 23:24:00,,0829.1,5.00,0.00,29.6,27.6,00.0,38.3,31.4,33.2,0000.0,0009.30,0004.95,0004.32
2022-08-08 23:25:00,,0829.0,5.00,0.00,29.6,27.4,00.0,38.3,31.3,33.0,0000.0,0009.43,0005.00,0004.35
2022-08-08 23:26:00,,0829.0,4.99,0.00,29.5,27.5,00.0,38.3,31.3,32.8,0000.0,0009.17,0005.05,0004.39
2022-08-08 23:27:00,,0829.1,5.01,0.00,29.5,27.6,00.0,38.3,31.3,33.0,0000.0,0009.37,0005.15,0004.44
2022-08-08 23:28:00,,0829.1,5.00,0.00,29.5,27.8,00.0,38.3,31.4,32.7,0000.0,0009.93,0005.20,0004.48
2022-08-08 23:29:00,,0829.1,5.00,0.00,29.6,28.0,00.0,38.3,31.5,32.4,0000.0,0010.00,0005.21,0004.52
2022-08-08 23:30:00,,0829.1,5.00,0.00,29.6,28.2,00.0,38.3,31.6,32.2,0000.0,0010.45,0005.25,0004.55
2022-08-08 23:31:00,,0829.1,5.00,0.00,29.7,28.4,00.0,38.3,31.7,32.5,0000.0,0010.69,0005.27,0004.56
2022-08-08 23:32:00,,0829.1,5.01,0.00,29.7,28.1,00.0,38.3,31.5,32.4,0000.0,0010.69,0005.28,0004.57
2022-08-08 23:33:00,,0829.1,5.00,0.00,29.6,27.5,00.0,38.3,31.3,32.0,0000.0,0010.66,0005.28,0004.58
2022-08-08 23:34:00,,0829.1,5.01,0.00,29.6,27.4,00.0,38.3,31.3,31.8,0000.0,0010.85,0005.25,0004.58
2022-08-08 23:35:00,,0829.1,4.99,0.00,29.5,27.4,00.0,38.3,31.2,31.6,0000.0,0010.89,0005.25,0004.59
2022-08-08 23:36:00,,0829.0,5.01,0.00,29.5,27.6,00.0,38.3,31.3,31.5,0000.0,0010.81,0005.23,0004.58
2022-08-08 23:37:00,,0829.1,5.00,0.00,29.5,27.8,00.0,38.3,31.4,31.7,0000.0,0010.77,0005.20,0004.59
2022-08-08 23:38:00,,0829.0,5.00,0.00,29.5,28.0,00.0,38.3,31.5,31.5,0000.0,0010.42,0005.14,0004.58
2022-08-08 23:39:00,,0829.1,5.00,0.00,29.6,28.2,00.0,38.3,31.6,31.5,0000.0,0009.88,0005.11,0004.58
2022-08-08 23:40:00,,0829.0,5.00,0.00,29.6,28.4,00.0,38.3,31.7,31.5,0000.0,0009.54,0005.11,0004.58
2022-08-08 23:41:00,,0829.1,5.00,0.00,29.7,28.1,00.0,38.3,31.6,31.7,0000.0,0008.98,0005.13,0004.57
2022-08-08 23:42:00,,0829.0,5.01,0.00,29.6,27.6,00.0,38.3,31.4,31.3,0000.0,0008.87,0005.13,0004.58
2022-08-08 23:43:00,,0829.1,5.00,0.00,29.6,27.4,00.0,38.3,31.4,31.3,0000.0,0008.89,0005.12,0004.59
2022-08-08 23:44:00,,0829.1,5.00,0.00,29.5,27.4,00.0,38.3,31.3,31.4,0000.0,0008.87,0005.12,0004.60
2022-08-08 23:45:00,,0829.0,5.00,0.00,29.5,27.6,00.0,38.3,31.3,31.5,0000.0,0009.37,0005.15,0004.60
2022-08-08 23:46:00,,0829.0,5.00,0.00,29.5,27.8,00.0,38.3,31.4,31.2,0000.0,0009.83,0005.12,0004.59
2022-08-08 23:47:00,,0829.0,4.99,0.00,29.5,28.0,00.0,38.3,31.5,31.3,0000.0,0010.06,0005.12,0004.59
2022-08-08 23:48:00,,0829.0,5.00,0.00,29.6,28.2,00.0,38.3,31.6,31.2,0000.0,0010.09,0005.12,0004.57
2022-08-08 23:49:00,,0829.1,5.00,0.00,29.6,28.4,00.0,38.3,31.7,30.9,0000.0,0010.36,0005.11,0004.57
2022-08-08 23:50:00,,0829.1,5.00,0.00,29.7,28.2,00.0,38.3,31.5,31.4,0000.0,0010.45,0005.15,0004.57
2022-08-08 23:51:00,,0829.1,5.01,0.00,29.6,27.6,00.0,38.3,31.3,32.2,0000.0,0010.34,0005.14,0004.56
2022-08-08 23:52:00,,0829.0,4.99,0.00,29.6,27.4,00.0,38.3,31.3,31.4,0000.0,0010.28,0005.07,0004.53
2022-08-08 23:53:00,,0829.0,5.00,0.00,29.5,27.4,00.0,38.3,31.3,32.4,0000.0,0010.20,0005.02,0004.49
2022-08-08 23:54:00,,0829.0,5.01,0.00,29.5,27.5,00.0,38.3,31.3,32.2,0000.0,0010.26,0004.99,0004.44
2022-08-08 23:55:00,,0829.0,4.99,0.00,29.5,27.8,00.0,38.3,31.4,32.6,0000.0,0010.79,0004.95,0004.40
2022-08-08 23:56:00,,0829.0,5.00,0.00,29.5,28.0,00.0,38.3,31.5,31.6,0000.0,0009.99,0004.90,0004.37
2022-08-08 23:57:00,,0829.0,5.01,0.00,29.6,28.2,00.0,38.3,31.6,31.9,0000.0,0009.66,0004.89,0004.34
2022-08-08 23:58:00,,0829.0,5.00,0.00,29.6,28.4,00.0,38.3,31.6,31.6,0000.0,0009.38,0004.86,0004.31
2022-08-08 23:59:00,,0829.0,4.99,0.00,29.7,28.2,00.0,38.3,31.6,31.7,0000.0,0009.31,0004.84,0004.28
